Flag for U.S.A. Weather past 2 weeks in Salem, Oregon, U.S.A.

Now
54 °F

Sunny.


Feels Like: 52 °F
Forecast: 42 / 55 °F
Wind: 7 mph from North

Location: McNary Field

Current Time: Jan 29, 2015 at 1:18:37 PM

Latest Report: Jan 29, 2015 at 12:56 PM


Visibility: 10 mi

Pressure: 30.26 "Hg

Humidity: 62%

Dew point: 41 °F

Location of SalemLocation

Historic Weather in Salem — Graph

°F

Salem temperature yesterday

Maximum temperature yesterday: 58 °F (at 2:56 PM)
Minimum temperature yesterday: 47 °F (at 3:56 AM)
Average temperature yesterday: 51 °F

Past Weeks' High & Low Weather Summary

 TemperatureHumidityPressure
High63 °F (Jan 24, 1:56 PM)100% (Jan 21, 1:04 AM)30.47 "Hg (Jan 21, 1:04 AM)
Low30 °F (Jan 15, 12:56 AM)58% (Jan 19, 2:56 PM)29.76 "Hg (Jan 17, 9:56 PM)
Average47 °F87%30.21 "Hg
* Reported Jan 14 11:56 AM — Jan 29 11:56 AM, Salem, Weather by CustomWeather, © 2014

Note: Actual official high and low records may vary slightly from our data, if they occured in-between our weather recording intervals... More about our weather records

Advertising

Salem weather history for previous 24 hours

 ConditionsComfort  
Time TempWeatherWind HumidityBarometerVisibility
11:56 AM
Jan 29
52 °FSunny.7 mph69%30.29 "Hg10 mi
10:56 AM50 °FScattered clouds.7 mph68%30.30 "Hg10 mi
9:56 AM46 °FBroken clouds.6 mph79%30.30 "Hg10 mi
8:56 AM46 °FBroken clouds.6 mph86%30.30 "Hg10 mi
7:56 AM45 °FBroken clouds.5 mph90%30.29 "Hg10 mi
6:56 AM46 °FClear.3 mph89%30.29 "Hg10 mi
5:56 AM46 °FClear.No wind93%30.29 "Hg10 mi
4:56 AM46 °FPassing clouds.No wind96%30.30 "Hg10 mi
3:56 AM46 °FPassing clouds.5 mph93%30.30 "Hg10 mi
2:56 AM47 °FClear.3 mph93%30.30 "Hg10 mi
1:56 AM48 °FPassing clouds.3 mph93%30.31 "Hg10 mi
12:56 AM49 °FPassing clouds.No wind93%30.30 "Hg9 mi
11:56 PM
Jan 28
50 °FPassing clouds.5 mph89%30.30 "Hg10 mi
10:56 PM51 °FOvercast.3 mph89%30.30 "Hg10 mi
9:56 PM51 °FOvercast.No wind89%30.30 "Hg10 mi
8:56 PM52 °FLow clouds.5 mph89%30.30 "Hg10 mi
7:56 PM52 °FLow clouds.5 mph89%30.30 "Hg10 mi
6:56 PM53 °FOvercast.5 mph86%30.30 "Hg10 mi
5:56 PM52 °FOvercast.6 mph89%30.29 "Hg10 mi
4:56 PM54 °FPartly sunny.8 mph83%30.29 "Hg10 mi
3:56 PM55 °FScattered clouds.7 mph80%30.29 "Hg10 mi
2:56 PM58 °FPartly sunny.8 mph75%30.29 "Hg10 mi
1:56 PM55 °FOvercast.7 mph80%30.30 "Hg10 mi
Weather by CustomWeather, © 2014

See weather overviewHow to use our weather pages